Laredo, TX

7:48 PM CDT on September 19, 2017 (GMT -0500)
Laredo International

Weather History for KLRD - May, 2013

Change the Weather History Date:

Sunday, May 26, 2013

  Actual Average Record
Temperature  
Mean Temperature 85 °F 85 °F  
Max Temperature 92 °F 96 °F 109 °F (1973)
Min Temperature 77 °F 74 °F 59 °F (1941)
Degree Days  
Heating Degree Days 0 0  
Month to date heating degree days 2 0  
Since 1 July heating degree days 517 926  
Cooling Degree Days 20 20  
Month to date cooling degree days 391 443  
Year to date cooling degree days 1088 1043  
Growing Degree Days 34 (Base 50)    
Moisture  
Dew Point 72 °F    
Average Humidity 72    
Maximum Humidity 88    
Minimum Humidity 50    
Precipitation  
Precipitation 0.00 in 0.08 in 4.00 in (1929)
Month to date precipitation 4.59 2.07  
Year to date precipitation 7.08 6.45  
Sea Level Pressure  
Sea Level Pressure 29.99 in    
Wind  
Wind Speed 18 mph (ESE)    
Max Wind Speed 23 mph    
Max Gust Speed -    
Visibility 10 miles    
Events      
T = Trace of Precipitation, MM = Missing Value Source: NWS Daily Summary

Daily Weather History Graph

Daily Weather History Graph

Search for Another Location

Airport or City:

Trip Planner

Search our weather history database for the weather conditions in past years. The results will help you decide how hot, cold, wet, or windy it might be!

Date:

Astronomy

May. 26, 2013 Rise Set
Actual Time 6:44 AM CDT 8:26 PM CDT
Civil Twilight 6:18 AM CDT 8:51 PM CDT
Nautical Twilight 5:46 AM CDT 9:23 PM CDT
Astronomical Twilight 5:14 AM CDT 9:56 PM CDT
Moon 10:17 PM CDT (5/26) 8:13 AM CDT (5/26)
Length of Visible Light 14h 33m
Length of Day
13h 41m
Waning Gibbous, 96% of the Moon is Illuminated
May 26
Waning Gibbous
May 31
Last Quarter
Jun 8
New
Jun 16
First Quarter
Jun 23
Full

Hourly Weather History & Observations

Time (CDT) Temp. Heat Index Dew Point Humidity Pressure Visibility Wind Dir Wind Speed Gust Speed Precip Events Conditions
12:56 AM 77.9 °F - 72.9 °F 84% 30.01 in 10.0 mi North - - N/A   Clear
1:56 AM 77.9 °F - 72.9 °F 84% 30.00 in 10.0 mi North - - N/A   Scattered Clouds
2:56 AM 77.0 °F - 72.9 °F 87% 29.99 in 10.0 mi North - - N/A   Partly Cloudy
3:24 AM 77.0 °F - 73.4 °F 89% 30.02 in 10.0 mi North - - N/A   Mostly Cloudy
3:43 AM 77.0 °F - 73.4 °F 89% 30.02 in 10.0 mi North - - N/A   Mostly Cloudy
3:56 AM 77.0 °F - 72.9 °F 87% 29.98 in 10.0 mi North - - N/A   Partly Cloudy
4:56 AM 77.0 °F - 72.9 °F 87% 29.96 in 10.0 mi North - - N/A   Scattered Clouds
5:56 AM 77.0 °F - 72.9 °F 87% 29.96 in 10.0 mi North - - N/A   Mostly Cloudy
6:21 AM 78.8 °F - 73.4 °F 83% 30.01 in 10.0 mi North - - N/A   Overcast
6:56 AM 77.9 °F - 72.9 °F 84% 29.97 in 10.0 mi North - - N/A   Mostly Cloudy
7:56 AM 77.9 °F - 72.9 °F 84% 29.99 in 10.0 mi East 17.3 mph - N/A   Mostly Cloudy
8:56 AM 79.9 °F - 72.9 °F 79% 30.01 in 10.0 mi ESE 13.8 mph - N/A   Scattered Clouds
9:08 AM 80.6 °F 85.4 °F 73.4 °F 79% 30.05 in 10.0 mi North - - N/A   Mostly Cloudy
9:40 AM 80.6 °F 85.4 °F 73.4 °F 79% 30.07 in 10.0 mi ESE 13.8 mph - N/A   Mostly Cloudy
9:56 AM 81.0 °F 86.2 °F 73.9 °F 79% 30.04 in 9.0 mi ESE 13.8 mph - N/A   Mostly Cloudy
10:56 AM 84.9 °F 91.4 °F 72.9 °F 67% 30.03 in 10.0 mi East 18.4 mph - N/A   Mostly Cloudy
11:03 AM 84.2 °F 89.6 °F 71.6 °F 66% 30.06 in 10.0 mi North - - N/A   Mostly Cloudy
11:31 AM 86.0 °F 91.8 °F 71.6 °F 62% 30.06 in 10.0 mi North - - N/A   Scattered Clouds
11:56 AM 86.9 °F 93.3 °F 72.0 °F 61% 30.02 in 10.0 mi SE 17.3 mph - N/A   Partly Cloudy
12:56 PM 88.9 °F 94.7 °F 70.9 °F 55% 29.99 in 10.0 mi ESE 23.0 mph - N/A   Partly Cloudy
1:56 PM 88.9 °F 94.7 °F 70.9 °F 55% 29.97 in 10.0 mi North - - N/A   Scattered Clouds
2:56 PM 90.9 °F 98.3 °F 72.0 °F 54% 29.97 in 10.0 mi ESE 17.3 mph - N/A   Mostly Cloudy
3:56 PM 90.0 °F 95.9 °F 70.9 °F 53% 29.94 in 10.0 mi East 15.0 mph - N/A   Scattered Clouds
4:56 PM 90.9 °F 96.2 °F 70.0 °F 50% 29.92 in 10.0 mi East 20.7 mph - N/A   Partly Cloudy
5:56 PM 90.0 °F 95.4 °F 70.0 °F 52% 29.89 in 10.0 mi East 17.3 mph - N/A   Clear
6:56 PM 88.9 °F 94.7 °F 70.9 °F 55% 29.89 in 10.0 mi ESE 18.4 mph - N/A   Partly Cloudy
7:56 PM 86.9 °F 91.7 °F 70.0 °F 57% 29.92 in 10.0 mi ESE 17.3 mph - N/A   Clear
8:56 PM 83.8 °F 88.6 °F 70.9 °F 65% 29.94 in 10.0 mi North - - N/A   Clear
9:56 PM 81.9 °F 86.6 °F 72.0 °F 72% 29.95 in 10.0 mi North - - N/A   Clear
10:56 PM 81.0 °F 85.2 °F 72.0 °F 74% 29.97 in 10.0 mi North - - N/A   Clear
11:56 PM 79.9 °F - 72.0 °F 77% 29.97 in 10.0 mi North - - N/A   Clear